Location: Pinon Hills
(34.4429°N, 117.6403°W)
Time: 18:49:29
(UTC-07:00)

Amateur Radio Satellites - All Passes

Search period start: 01 September 2014 18:19
Search period end: 02 September 2014 18:19
Location: Pinon Hills, 34.4429°N, 117.6403°W

Satellite Date Start Highest point End Downlink Frequencies (MHz)
Time Altitude Azimuth
AO-7 01 Sep 18:22:34 18:26:40 14° 268° (W) 18:30:47 29.400 - 29.500 MHz
RS-15 01 Sep 18:22:45 18:32:55 42° 252° (WSW) 18:43:31 29.354 - 29.394 USB, Beacon 29.352 USB
Hamsat 01 Sep 18:49:27 18:53:06 27° 264° (W) 18:56:48 145.90 MHz
OPAL 01 Sep 19:04:13 19:06:06 12° 300° (WNW) 19:08:00 ?
STRAND 1 01 Sep 19:10:09 19:14:57 40° 99° (E) 19:19:43 ?
HO-68 01 Sep 19:38:38 19:43:23 19° 60° (ENE) 19:48:07 435.675 MHz FM
SO-67 01 Sep 19:47:16 19:50:24 32° 262° (W) 19:53:33 435.3500 MHz FM
JAS-2 01 Sep 19:56:13 19:56:53 10° 267° (W) 19:57:34 435.800 - 435.900 CW/SSB, 435.910 FM
UKube-1 01 Sep 20:46:14 20:49:38 23° 69° (ENE) 20:53:03 145.840 MHz, 145.915 MHz
STRAND 1 01 Sep 20:50:09 20:53:49 20° 293° (WNW) 20:57:28 ?
Oscar 11 01 Sep 20:50:52 20:53:27 16° 68° (ENE) 20:56:02 145.825 FM, Beacon 2401.500 USB
Saudisat 1A 01 Sep 21:18:18 21:22:06 29° 112° (ESE) 21:25:56 436.775 MHz
HO-68 01 Sep 21:23:13 21:30:20 72° 256° (WSW) 21:37:28 435.675 MHz FM
FUNcube-1 01 Sep 21:23:33 21:25:25 13° 66° (ENE) 21:27:18 145.950 - 145.970 MHz USB
MaSat-1 01 Sep 21:44:50 21:47:51 18° 54° (NE) 21:50:36 437.345 MHz
KITSAT 1 01 Sep 22:15:52 22:23:14 40° 108° (ESE) 22:30:37 435.175 FM
UKube-1 01 Sep 22:22:07 22:25:42 25° 263° (W) 22:29:18 145.840 MHz, 145.915 MHz
Oscar 11 01 Sep 22:25:15 22:29:17 38° 262° (W) 22:33:21 145.825 FM, Beacon 2401.500 USB
AO-40 01 Sep 22:40:17 02:04:27 30° 122° (ESE) 03:26:54 Beacon 2401.320
FUNcube-1 01 Sep 22:57:24 23:01:22 44° 261° (W) 23:05:27 145.950 - 145.970 MHz USB
Saudisat 1A 01 Sep 22:58:05 23:01:39 24° 308° (NW) 23:05:15 436.775 MHz
MaSat-1 01 Sep 23:21:11 23:24:57 31° 255° (WSW) 23:28:13 437.345 MHz
Oscar 10/S400 02 Sep 00:01:50 00:45:51 67° 200° (SSW) 10:24:06 145.825 - 145.975 CW/USB, Beacon 145.810 USB
KITSAT 1 02 Sep 00:11:01 00:18:32 41° 306° (NW) 00:26:05 435.175 FM
Sapphire 02 Sep 00:49:41 00:53:13 17° 51° (NE) 00:56:43 437.095 MHz 1200 baud AX-25 AFSK
PCSat 02 Sep 01:17:59 01:22:49 32° 57° (ENE) 01:27:36 145.825 MHz
Oscar 19 02 Sep 01:23:19 01:26:52 19° 94° (E) 01:30:24 437.125 CW, 437.150 USB
Oscar 16 02 Sep 01:57:31 02:02:28 44° 99° (E) 02:07:22 437.025 USB, Beacon 2401.1428
SO-50 02 Sep 01:59:24 02:02:19 17° 109° (ESE) 02:05:16 436.795 FM
ITAMSAT 1 02 Sep 02:01:16 02:04:46 18° 94° (E) 02:08:16 435.822 SSB
Uribyol 2 02 Sep 02:10:02 02:14:13 24° 96° (E) 02:18:23 436.500 FM
JAS-1B 02 Sep 02:27:19 02:32:50 31° 95° (E) 02:37:52 435.800 - 435.900 CW/SSB
AO-27 02 Sep 02:29:57 02:34:44 37° 98° (E) 02:39:30 436.795 MHz FM
Sapphire 02 Sep 02:31:42 02:37:03 62° 247° (WSW) 02:42:23 437.095 MHz 1200 baud AX-25 AFSK
PCSat 02 Sep 03:01:26 03:06:06 30° 252° (WSW) 03:10:45 145.825 MHz
Oscar 19 02 Sep 03:01:27 03:06:21 43° 288° (WNW) 03:11:13 437.125 CW, 437.150 USB
AO-Echo 02 Sep 03:08:48 03:13:29 75° 284° (WNW) 03:18:14 ?
Gurwin Techsat 1B 02 Sep 03:12:01 03:17:02 42° 99° (E) 03:22:02 435.225 FM
Oscar 16 02 Sep 03:37:49 03:41:26 19° 294° (WNW) 03:45:03 437.025 USB, Beacon 2401.1428
SO-50 02 Sep 03:38:21 03:42:31 39° 304° (NW) 03:46:48 436.795 FM
ITAMSAT 1 02 Sep 03:39:31 03:44:25 44° 288° (WNW) 03:49:19 435.822 SSB
UOSAT-12 02 Sep 03:45:01 03:47:53 17° 108° (ESE) 03:50:48 437.025 FM, 437.400 FM
Uribyol 2 02 Sep 03:49:02 03:53:40 34° 290° (WNW) 03:58:18 436.500 FM
TMSAT-1 02 Sep 04:01:40 04:07:00 86° 284° (WNW) 04:12:17 436.925 FM
Uosat F 02 Sep 04:03:10 04:06:00 15° 93° (E) 04:08:49 435.120 FM
AO-27 02 Sep 04:10:00 04:13:59 23° 293° (WNW) 04:17:57 436.795 MHz FM
JAS-1B 02 Sep 04:17:58 04:23:25 30° 295° (WNW) 04:28:23 435.800 - 435.900 CW/SSB
AO-7 02 Sep 04:30:48 04:38:25 39° 100° (E) 04:45:58 29.400 - 29.500 MHz
OPAL 02 Sep 04:34:07 04:39:10 90° 75° (ENE) 04:44:19 ?
Gurwin Techsat 1B 02 Sep 04:52:49 04:56:40 21° 293° (WNW) 05:00:30 435.225 FM
UOSAT-12 02 Sep 05:23:15 05:27:38 44° 303° (WNW) 05:32:07 437.025 FM, 437.400 FM
Uosat F 02 Sep 05:40:11 05:45:00 50° 287° (WNW) 05:49:49 435.120 FM
Saudisat 1A 02 Sep 05:50:19 05:51:21 11° 45° (NE) 05:52:24 436.775 MHz
KITSAT 1 02 Sep 06:15:02 06:18:00 12° 35° (NE) 06:20:58 435.175 FM
STRAND 1 02 Sep 06:22:40 06:27:25 41° 71° (ENE) 06:32:10 ?
AO-7 02 Sep 06:23:33 06:31:06 41° 296° (WNW) 06:38:38 29.400 - 29.500 MHz
RS-15 02 Sep 06:29:24 06:39:42 45° 109° (ESE) 06:49:46 29.354 - 29.394 USB, Beacon 29.352 USB
Hamsat 02 Sep 06:38:03 06:42:23 70° 101° (E) 06:46:38 145.90 MHz
JAS-2 02 Sep 07:02:06 07:07:28 82° 284° (WNW) 07:13:23 435.800 - 435.900 CW/SSB, 435.910 FM
SO-67 02 Sep 07:14:49 07:17:24 20° 95° (E) 07:19:58 435.3500 MHz FM
Saudisat 1A 02 Sep 07:27:04 07:31:29 81° 243° (WSW) 07:35:53 436.775 MHz
STRAND 1 02 Sep 08:03:08 08:06:42 19° 265° (W) 08:10:18 ?
KITSAT 1 02 Sep 08:07:29 08:15:23 55° 58° (ENE) 08:23:14 435.175 FM
ISS 02 Sep 08:17:37 08:20:03 19° 129° (SE) 08:22:30 145.800 FM
RS-15 02 Sep 08:41:22 08:51:53 47° 308° (NW) 09:02:18 29.354 - 29.394 USB, Beacon 29.352 USB
SO-67 02 Sep 08:47:57 08:50:17 17° 289° (WNW) 08:52:37 435.3500 MHz FM
HO-68 02 Sep 08:55:39 09:01:31 27° 96° (E) 09:07:20 435.675 MHz FM
ISS 02 Sep 09:53:35 09:56:37 32° 323° (NW) 09:59:39 145.800 FM
PANSAT 02 Sep 10:01:17 10:03:59 18° 163° (SSE) 10:06:42 not established
KITSAT 1 02 Sep 10:03:42 10:10:17 29° 255° (WSW) 10:16:52 435.175 FM
UKube-1 02 Sep 10:13:00 10:17:20 70° 102° (ESE) 10:21:39 145.840 MHz, 145.915 MHz
Oscar 11 02 Sep 10:16:11 10:20:25 48° 100° (E) 10:24:37 145.825 FM, Beacon 2401.500 USB
HO-68 02 Sep 10:42:32 10:49:22 50° 291° (WNW) 10:56:11 435.675 MHz FM
FUNcube-1 02 Sep 10:49:37 10:54:01 45° 99° (E) 10:58:26 145.950 - 145.970 MHz USB
RS-15 02 Sep 11:02:42 11:08:00 14° 338° (NNW) 11:13:20 29.354 - 29.394 USB, Beacon 29.352 USB
MaSat-1 02 Sep 11:28:56 11:32:06 18° 101° (E) 11:35:24 437.345 MHz
PANSAT 02 Sep 11:40:15 11:43:43 32° 175° (S) 11:47:12 not established
Oscar 11 02 Sep 11:54:14 11:56:08 13° 294° (WNW) 11:58:02 145.825 FM, Beacon 2401.500 USB
SO-50 02 Sep 12:12:47 12:17:35 68° 60° (ENE) 12:22:25 436.795 FM
FUNcube-1 02 Sep 12:27:24 12:30:00 15° 293° (WNW) 12:32:37 145.950 - 145.970 MHz USB
Oscar 19 02 Sep 12:37:03 12:40:40 20° 66° (ENE) 12:44:18 437.125 CW, 437.150 USB
MaSat-1 02 Sep 13:03:58 13:08:38 46° 297° (WNW) 13:13:35 437.345 MHz
JAS-1B 02 Sep 13:05:37 13:13:33 30° 65° (ENE) 13:20:48 435.800 - 435.900 CW/SSB
Oscar 16 02 Sep 13:10:58 13:15:50 44° 72° (ENE) 13:20:44 437.025 USB, Beacon 2401.1428
ITAMSAT 1 02 Sep 13:16:08 13:19:49 20° 66° (ENE) 13:23:30 435.822 SSB
PANSAT 02 Sep 13:20:09 13:23:33 29° 188° (S) 13:26:56 not established
RS-15 02 Sep 13:23:15 13:27:39 13° 18° (NNE) 13:32:04 29.354 - 29.394 USB, Beacon 29.352 USB
Uribyol 2 02 Sep 13:24:42 13:28:54 26° 68° (ENE) 13:33:07 436.500 FM
TMSAT-1 02 Sep 13:43:26 13:44:56 11° 62° (ENE) 13:46:26 436.925 FM
AO-27 02 Sep 13:44:41 13:49:28 39° 71° (ENE) 13:54:15 436.795 MHz FM
UOSAT-12 02 Sep 13:56:02 14:00:41 58° 59° (ENE) 14:05:16 437.025 FM, 437.400 FM
SO-50 02 Sep 13:56:08 13:57:34 11° 253° (WSW) 13:59:00 436.795 FM
Oscar 19 02 Sep 14:14:45 14:19:38 43° 261° (W) 14:24:34 437.125 CW, 437.150 USB
AO-Echo 02 Sep 14:17:57 14:23:00 86° 257° (WSW) 14:27:54 ?
Gurwin Techsat 1B 02 Sep 14:29:35 14:34:38 47° 72° (ENE) 14:39:42 435.225 FM
Oscar 16 02 Sep 14:51:53 14:55:21 18° 266° (W) 14:58:49 437.025 USB, Beacon 2401.1428
JAS-1B 02 Sep 14:53:46 15:03:29 64° 258° (WSW) 15:12:19 435.800 - 435.900 CW/SSB
ITAMSAT 1 02 Sep 14:54:07 14:58:58 41° 261° (W) 15:03:51 435.822 SSB
PANSAT 02 Sep 15:01:03 15:03:13 15° 200° (SSW) 15:05:23 not established
Uribyol 2 02 Sep 15:03:40 15:08:12 31° 263° (W) 15:12:46 436.500 FM
Uosat F 02 Sep 15:13:32 15:16:24 15° 65° (ENE) 15:19:15 435.120 FM
TMSAT-1 02 Sep 15:18:50 15:24:07 79° 257° (WSW) 15:29:26 436.925 FM
AO-27 02 Sep 15:25:17 15:29:04 20° 265° (W) 15:32:51 436.795 MHz FM
AO-7 02 Sep 15:25:58 15:33:30 40° 64° (ENE) 15:41:02 29.400 - 29.500 MHz
Sapphire 02 Sep 15:27:25 15:31:59 29° 108° (ESE) 15:36:33 437.095 MHz 1200 baud AX-25 AFSK
RS-15 02 Sep 15:34:14 15:44:28 40° 49° (NE) 15:54:59 29.354 - 29.394 USB, Beacon 29.352 USB
UOSAT-12 02 Sep 15:38:21 15:40:16 12° 253° (WSW) 15:42:11 437.025 FM, 437.400 FM
PCSat 02 Sep 15:55:40 16:00:57 59° 112° (ESE) 16:06:16 145.825 MHz
Gurwin Techsat 1B 02 Sep 16:11:18 16:14:47 18° 266° (W) 16:18:17 435.225 FM
ISS 02 Sep 16:24:54 16:28:10 53° 40° (NE) 16:31:26 145.800 FM
OPAL 02 Sep 16:47:59 16:52:39 33° 99° (E) 16:57:16 ?
Uosat F 02 Sep 16:49:50 16:54:42 52° 259° (W) 16:59:36 435.120 FM
Sapphire 02 Sep 17:10:25 17:15:15 33° 303° (WNW) 17:20:07 437.095 MHz 1200 baud AX-25 AFSK
JAS-2 02 Sep 17:11:41 17:16:39 27° 70° (ENE) 17:21:14 435.800 - 435.900 CW/SSB, 435.910 FM
AO-7 02 Sep 17:18:26 17:26:08 41° 260° (W) 17:33:52 29.400 - 29.500 MHz
Hamsat 02 Sep 17:28:01 17:31:49 31° 72° (ENE) 17:35:39 145.90 MHz
PCSat 02 Sep 17:41:07 17:44:45 18° 309° (NW) 17:48:23 145.825 MHz
RS-15 02 Sep 17:46:21 17:57:08 57° 249° (WSW) 18:08:23 29.354 - 29.394 USB, Beacon 29.352 USB
ISS 02 Sep 18:03:26 18:04:31 11° 234° (SW) 18:05:36 145.800 FM
